[[{"header":{"parameterUnit":"m.s-1","parameterCategory":1,"la1":30.2991,"la2":30.254,"lo1":-89.0895,"lo2":-89.0444,"dy":0.0017,"dx":0.0017,"nx":28,"ny":28,"refTime":"2023-10-19T21:00:00:Z","depth":0,"parameterNumber":2,"parameterNumberName":"U-component_of_WINDS"},"data":[0,0,0,0,0,0,0,0,0,0,0,0,0,0,0,0,0,0,0,0,0,0,0,0,0,0,0,0,0,0,0,0,0,0,0,0,0,0,0,0,0,0,0,0,0,0,0,0,0,0,0,0,0,0,0,0,0,0,-2.5986,-2.5985,0,-2.5903,-2.5902,-2.5901,-2.5765,-2.5762,-2.576,-2.5757,-2.5673,-2.5673,-2.5673,0,0,0,0,0,0,0,0,0,0,0,0,0,-2.603,-2.603,-2.5986,-2.5985,-2.5984,-2.5903,-2.5902,-2.59,-2.5765,-2.5762,-2.5759,-2.5756,-2.5673,-2.5673,-2.5673,0,0,0,0,0,0,0,0,0,0,0,0,0,-2.5986,-2.603,-2.5986,-2.5906,-2.5898,-2.5903,-2.5901,-2.59,-2.5766,-2.5762,-2.5758,-2.5755,-2.5673,-2.5673,-2.5673,-2.5749,0,0,-2.5674,-2.5674,0,0,0,0,0,0,0,0,-2.5988,-2.5984,-2.5919,-2.5912,-2.5903,-2.584,-2.5886,-2.5849,-2.5767,-2.5816,-2.5757,-2.5753,-2.5732,-2.5727,-2.5719,-2.5745,-2.5741,-2.5674,-2.5674,-2.5674,-2.5674,0,0,0,0,0,0,0,-2.5992,-2.5987,-2.5953,-2.5918,-2.5908,-2.5876,-2.5865,-2.5879,-2.5796,-2.5812,-2.5801,-2.5794,-2.5727,-2.572,-2.5716,-2.574,-2.5674,-2.5674,-2.5674,-2.5674,-2.5826,-2.583,0,0,0,0,0,0,-2.6006,-2.599,-2.5955,-2.595,-2.5937,-2.5878,-2.5866,-2.5864,-2.5795,-2.5781,-2.5797,-2.5787,-2.5721,-2.5716,-2.5713,-2.5797,-2.5674,-2.5674,-2.5674,-2.5822,-2.5827,-2.5831,0,0,0,0,0,0,-2.6008,-2.6004,-2.5959,-2.5968,-2.5959,-2.5881,-2.588,-2.5864,-2.5857,-2.5784,-2.5769,-2.5805,-2.5718,-2.5713,-2.5741,-2.5793,-2.5674,-2.5674,-2.5818,-2.5824,-2.5829,-2.5967,0,0,0,0,0,0,-2.601,-2.6006,-2.6032,-2.5969,-2.5959,-2.5988,-2.5883,-2.5865,-2.5858,-2.5845,-2.5788,-2.5774,-2.5715,-2.5742,-2.5742,-2.5791,-2.5674,-2.5813,-2.582,-2.5827,-2.5958,-2.5977,-2.5994,0,0,0,0,0,-2.6012,-2.6074,-2.6034,-2.6031,-2.5991,-2.5991,-2.5985,-2.5915,-2.5862,-2.5889,-2.5843,-2.5776,-2.5788,-2.5746,-2.5744,-2.5794,-2.5809,-2.5818,-2.5827,-2.595,-2.5974,-2.5994,0,0,0,0,0,0,-2.6144,-2.6064,-2.6019,-2.6063,-2.6035,-2.5968,-2.5999,-2.5942,-2.5928,-2.5917,-2.5831,-2.5819,-2.5859,-2.583,-2.5785,-2.5866,-2.5788,-2.5798,-2.5882,-2.5904,-2.5922,-2.5927,-2.5674,0,0,0,0,0,-2.6179,-2.6185,-2.6115,-2.6161,-2.6149,-2.6078,-2.6075,-2.6024,-2.5991,-2.5978,-2.5934,-2.5905,-2.5903,-2.5902,-2.5896,-2.5954,-2.5941,-2.5988,-2.6007,-2.6022,-2.603,-2.606,-2.6081,-2.5861,-2.5861,-2.5861,0,0,-2.625,-2.6207,-2.6216,-2.6187,-2.6158,-2.6168,-2.6068,-2.6081,-2.6087,-2.598,-2.6004,-2.5972,-2.5934,-2.5979,-2.5996,-2.5956,-2.6089,-2.6033,-2.6046,-2.6045,-2.6072,-2.6093,-2.6111,-2.5867,-2.5866,-2.5865,0,0,-2.6384,-2.6352,-2.6387,-2.6362,-2.6322,-2.6274,-2.6284,-2.6226,-2.62,-2.6224,-2.6144,-2.6151,-2.6148,-2.6125,-2.6113,-2.6244,-2.6183,-2.6245,-2.6338,-2.6369,-2.6387,-2.6401,-2.6448,-2.6466,-2.6254,-2.6254,-2.6254,0,-2.6477,-2.6486,-2.6412,-2.6431,-2.6421,-2.6327,-2.6362,-2.6342,-2.6302,-2.6298,-2.6254,-2.625,-2.6218,-2.6256,-2.6289,-2.6282,-2.6291,-2.6249,-2.639,-2.6404,-2.6417,-2.6461,-2.6479,-2.6262,-2.6261,-2.626,-2.6259,0,-2.6603,-2.6612,-2.6645,-2.6609,-2.6604,-2.6631,-2.6563,-2.6567,-2.6518,-2.6476,-2.6503,-2.6462,-2.6446,-2.6453,-2.6404,-2.6486,-2.6462,-2.6406,-2.6325,-2.6447,-2.6487,-2.6503,-2.6273,-2.627,-2.6268,-2.6266,0,0,-2.6813,-2.674,-2.6753,-2.6737,-2.6688,-2.6693,-2.6719,-2.6704,-2.6709,-2.6686,-2.6705,-2.6707,-2.6655,-2.6642,-2.6592,-2.6619,-2.6726,-2.6559,-2.6557,-2.6591,-2.6814,-2.6856,-2.6876,-2.6687,-2.669,-2.6692,-2.6817,0,-2.6935,-2.6971,-2.6908,-2.696,-2.6968,-2.6881,-2.6903,-2.6876,-2.684,-2.6842,-2.6801,-2.6804,-2.6736,-2.6727,-2.6751,-2.6708,-2.677,-2.6699,-2.6704,-2.6705,-2.6713,-2.6897,-2.6939,-2.7059,-2.6832,-2.6835,-2.6837,0,-2.708,-2.7066,-2.7119,-2.707,-2.7071,-2.7092,-2.7074,-2.7078,-2.7047,-2.7019,-2.7007,-2.6948,-2.6971,-2.6897,-2.6927,-2.6881,-2.688,-2.686,-2.6863,-2.6859,-2.6776,-2.6896,-2.7096,-2.7113,-2.686,-2.6859,-2.6857,0,-2.7227,-2.7222,-2.7253,-2.7242,-2.7186,-2.7203,-2.718,-2.7146,-2.7142,-2.7129,-2.7126,-2.7115,-2.7109,-2.7103,-2.7044,-2.6995,-2.7083,-2.7003,-2.706,-2.7061,-2.7079,-2.7078,-2.728,-2.7083,-2.7082,-2.7082,-2.7082,0,-2.7368,-2.7404,-2.7319,-2.7338,-2.7376,-2.7305,-2.7346,-2.7315,-2.7286,-2.7299,-2.7224,-2.7238,-2.716,-2.7166,-2.712,-2.7153,-2.7151,-2.7129,-2.7116,-2.7135,-2.7138,-2.7131,-2.712,-2.7087,-2.7086,-2.7085,-2.7084,0,-2.7537,-2.7481,-2.7509,-2.7455,-2.7443,-2.7474,-2.7428,-2.7444,-2.7405,-2.7422,-2.7422,-2.736,-2.7364,-2.7305,-2.7297,-2.7267,-2.732,-2.7293,-2.733,-2.7321,-2.738,-2.7375,-2.7583,-2.7607,-2.7397,-2.7399,-2.74,0,-2.7629,-2.7655,-2.7605,-2.7608,-2.7589,-2.7596,-2.7592,-2.7526,-2.7525,-2.7495,-2.7516,-2.7514,-2.7508,-2.7519,-2.7473,-2.7468,-2.7439,-2.7513,-2.7437,-2.7456,-2.7439,-2.7437,-2.744,-2.7527,-2.753,-2.7532,-2.7534,0,-2.7799,-2.7771,-2.7769,-2.7759,-2.7757,-2.7746,-2.7729,-2.7737,-2.7664,-2.7669,-2.7672,-2.7668,-2.7661,-2.766,-2.7647,-2.7625,-2.7568,-2.7559,-2.7571,-2.7589,-2.7609,-2.7598,-2.7371,-2.7553,-2.7551,-2.755,-2.7549,-2.7548,-2.793,-2.795,-2.7919,-2.792,-2.7902,-2.7889,-2.7903,-2.7866,-2.7868,-2.7857,-2.7818,-2.7829,-2.7802,-2.7778,-2.7762,-2.777,-2.7734,-2.7752,-2.7757,-2.7762,-2.7772,-2.7611,-2.7768,-2.7767,-2.7766,-2.7766,-2.7765,0,-2.8095,-2.8072,-2.8074,-2.8055,-2.8057,-2.8005,-2.7986,-2.7991,-2.8001,-2.7981,-2.7978,-2.7983,-2.7984,-2.7941,-2.7936,-2.7951,-2.7925,-2.7952,-2.7949,-2.7945,-2.7805,-2.7794,-2.7973,-2.7973,-2.7973,-2.7973,-2.7973,-2.7973,-2.8181,-2.8211,-2.8181,-2.8204,-2.818,-2.819,-2.8184,-2.8173,-2.8156,-2.8166,-2.8166,-2.8139,-2.811,-2.8103,-2.8102,-2.809,-2.8091,-2.8127,-2.8106,-2.7975,-2.7955,-2.7935,-2.7924,-2.8128,-2.8128,-2.8244,-2.8245,-2.8246]},{"header":{"parameterUnit":"m.s-1","parameterCategory":1,"la1":30.2991,"la2":30.254,"lo1":-89.0895,"lo2":-89.0444,"dy":0.0017,"dx":0.0017,"nx":28,"ny":28,"refTime":"2023-10-19T21:00:00:Z","depth":0,"parameterNumber":3,"parameterNumberName":"V-component_of_WINDS"},"data":[0,0,0,0,0,0,0,0,0,0,0,0,0,0,0,0,0,0,0,0,0,0,0,0,0,0,0,0,0,0,0,0,0,0,0,0,0,0,0,0,0,0,0,0,0,0,0,0,0,0,0,0,0,0,0,0,0,0,1.6949,1.6949,0,1.6913,1.6912,1.6912,1.6936,1.6937,1.6938,1.6939,1.6894,1.6892,1.689,0,0,0,0,0,0,0,0,0,0,0,0,0,1.7035,1.7033,1.6949,1.6949,1.6949,1.6913,1.6912,1.6912,1.6936,1.6937,1.6938,1.694,1.6895,1.6892,1.689,0,0,0,0,0,0,0,0,0,0,0,0,0,1.6998,1.7033,1.695,1.6956,1.6957,1.6913,1.6912,1.6912,1.6935,1.6937,1.6939,1.694,1.6896,1.6893,1.6889,1.6835,0,0,1.6879,1.6878,0,0,0,0,0,0,0,0,1.7,1.6995,1.6956,1.6956,1.6956,1.6931,1.6926,1.6886,1.6935,1.6943,1.6939,1.6941,1.6905,1.6901,1.689,1.6832,1.6831,1.6879,1.6877,1.6875,1.6874,0,0,0,0,0,0,0,1.7002,1.6996,1.6935,1.6955,1.6955,1.696,1.6956,1.6918,1.6915,1.6943,1.6944,1.694,1.6905,1.6893,1.6889,1.683,1.6879,1.6876,1.6874,1.6872,1.6726,1.6725,0,0,0,0,0,0,1.7005,1.6998,1.6936,1.6934,1.6983,1.6957,1.6953,1.6937,1.6915,1.6914,1.6939,1.6941,1.6898,1.6893,1.6887,1.6822,1.6875,1.6872,1.687,1.6728,1.6726,1.6724,0,0,0,0,0,0,1.7007,1.7,1.6937,1.6967,1.6959,1.6953,1.6935,1.6935,1.6924,1.6912,1.6911,1.6927,1.6899,1.6892,1.6848,1.682,1.6871,1.6868,1.673,1.6728,1.6725,1.669,0,0,0,0,0,0,1.7009,1.7,1.698,1.6966,1.6957,1.69,1.6934,1.6934,1.6919,1.6922,1.6901,1.69,1.69,1.6853,1.6845,1.6817,1.6865,1.6733,1.6729,1.6726,1.6693,1.6686,1.668,0,0,0,0,0,1.7012,1.697,1.6979,1.6971,1.6933,1.6899,1.6893,1.6897,1.6916,1.6895,1.6889,1.69,1.6826,1.6848,1.6839,1.681,1.6734,1.673,1.6726,1.6696,1.6688,1.668,0,0,0,0,0,0,1.6978,1.6968,1.6978,1.693,1.6915,1.6903,1.6876,1.6887,1.6864,1.6868,1.6871,1.6866,1.682,1.6811,1.6837,1.6756,1.6783,1.6777,1.6763,1.6755,1.6749,1.675,1.6862,0,0,0,0,0,1.6965,1.694,1.6933,1.6891,1.6883,1.6881,1.6866,1.6871,1.6854,1.6847,1.6837,1.6819,1.6792,1.6773,1.6747,1.6693,1.6689,1.6669,1.6662,1.6657,1.665,1.6621,1.6612,1.671,1.671,1.671,0,0,1.6937,1.6929,1.6913,1.6884,1.6873,1.6845,1.6876,1.6845,1.6824,1.6842,1.68,1.6792,1.6772,1.6723,1.6701,1.6714,1.6623,1.6651,1.6647,1.6644,1.6616,1.6606,1.6598,1.6707,1.6708,1.6708,0,0,1.6873,1.6865,1.683,1.6819,1.6803,1.6803,1.6795,1.6781,1.6777,1.6736,1.675,1.6724,1.6677,1.6662,1.6649,1.6582,1.6591,1.6573,1.6537,1.6509,1.6501,1.6494,1.6469,1.646,1.6568,1.6568,1.6568,0,1.6839,1.68,1.6809,1.6778,1.6765,1.6784,1.6748,1.6736,1.6711,1.6701,1.6717,1.6659,1.6647,1.6595,1.6579,1.6568,1.6557,1.6574,1.6502,1.6495,1.6489,1.6465,1.6456,1.6565,1.6566,1.6566,1.6566,0,1.676,1.6733,1.6706,1.6685,1.6669,1.6635,1.6638,1.662,1.6627,1.6624,1.6582,1.6569,1.6541,1.6529,1.6534,1.6478,1.6487,1.6502,1.6529,1.6477,1.6455,1.6446,1.6562,1.6563,1.6564,1.6564,0,0,1.6669,1.6656,1.6646,1.6637,1.6623,1.6601,1.6568,1.6544,1.6528,1.6512,1.6483,1.6444,1.6459,1.6444,1.6448,1.6423,1.637,1.6442,1.6441,1.6427,1.6307,1.6294,1.6283,1.6378,1.6376,1.6375,1.6308,0,1.6602,1.6548,1.6556,1.6502,1.6477,1.6496,1.6468,1.6455,1.6452,1.6429,1.6425,1.6398,1.642,1.6411,1.6388,1.6382,1.6345,1.6387,1.6349,1.6347,1.6351,1.6271,1.6257,1.6194,1.6299,1.6298,1.6297,0,1.6517,1.65,1.6445,1.6436,1.6426,1.64,1.6379,1.6358,1.6343,1.6343,1.6328,1.6337,1.6302,1.6332,1.6284,1.6312,1.6298,1.6292,1.629,1.6285,1.6317,1.6262,1.6174,1.6164,1.6283,1.6284,1.6285,0,1.6455,1.6418,1.6381,1.6373,1.6362,1.6343,1.6337,1.6326,1.6311,1.6292,1.6282,1.6259,1.6245,1.6227,1.6228,1.625,1.6179,1.6209,1.6176,1.6176,1.6158,1.6159,1.6065,1.6152,1.6152,1.6152,1.6153,0,1.6378,1.6343,1.6353,1.6329,1.6291,1.6301,1.6262,1.6258,1.6248,1.6223,1.6238,1.6213,1.6219,1.6194,1.6195,1.6155,1.6149,1.6146,1.6146,1.6144,1.6144,1.6132,1.6136,1.615,1.6151,1.6151,1.6151,0,1.63,1.6306,1.6266,1.6261,1.6259,1.623,1.6224,1.6202,1.6202,1.617,1.6163,1.6162,1.6135,1.6136,1.6103,1.6104,1.6054,1.606,1.6059,1.606,1.6027,1.6029,1.592,1.5906,1.6004,1.6003,1.6002,0,1.625,1.6224,1.6217,1.6203,1.6197,1.6174,1.616,1.6169,1.6154,1.6137,1.6116,1.6091,1.607,1.6025,1.602,1.5995,1.6,1.5964,1.5996,1.5994,1.5997,1.5998,1.5995,1.5956,1.5955,1.5954,1.5953,0,1.616,1.6165,1.6146,1.6128,1.6112,1.6098,1.6085,1.6072,1.608,1.6061,1.6035,1.602,1.5989,1.5962,1.5939,1.5931,1.5942,1.5944,1.5935,1.593,1.593,1.5929,1.604,1.5945,1.5946,1.5947,1.5947,1.5948,1.6094,1.6072,1.6064,1.6043,1.6035,1.6023,1.6002,1.6001,1.598,1.5957,1.5964,1.5933,1.5921,1.5892,1.5882,1.5857,1.587,1.5857,1.5853,1.5849,1.5845,1.5937,1.5853,1.5853,1.5854,1.5854,1.5854,0,1.6003,1.6001,1.5981,1.5964,1.5947,1.5964,1.5951,1.5934,1.5909,1.5897,1.5879,1.5848,1.5823,1.5818,1.5794,1.5775,1.578,1.5769,1.5769,1.5767,1.5836,1.5845,1.5765,1.5765,1.5765,1.5765,1.5765,1.5765,1.5954,1.5919,1.5923,1.5883,1.588,1.5853,1.5844,1.5832,1.5824,1.579,1.5771,1.5769,1.576,1.5736,1.5714,1.5713,1.5702,1.5688,1.5689,1.5753,1.5762,1.577,1.5779,1.5686,1.5686,1.5622,1.5621,1.5621]}]]